Wind_Speed
15 14 14 13 13 13 13 13 13 13 12 12 12 13 12 13 12 11 11 11 10 10 10 10 11 11 11 8 6 5 9 7 5 9 10 8 8 9 9 8 7 8 8 6 3 2 4 6 4 4 6 5 4 3 5 7 5 6 7 9 10 10 11 10 10 8 6 8 7 4 4 7 9 7 4 3 9 12 8 7 7 5 4 3 2 1 5 10
15 14 14 14 14 13 13 13 13 12 12 11 12 13 13 13 13 11 10 9 9 9 9 10 10 11 10 7 4 3 5 4 6 13 11 8 9 10 10 10 9 10 9 6 3 2 3 3 3 4 6 4 3 3 5 5 5 7 7 8 9 10 9 6 8 7 5 7 6 3 3 5 7 6 2 5 12 11 9 9 8 9 8 6 2 3 7 10
15 14 14 14 14 13 13 13 13 12 11 12 13 14 14 13 12 10 9 8 8 8 8 9 10 11 9 6 2 1 2 3 6 12 8 7 9 10 11 11 11 11 9 6 5 3 3 1 3 5 5 3 2 3 6 5 5 8 7 8 9 10 8 4 7 8 6 7 8 8 7 6 7 6 3 7 11 10 11 9 8 10 9 4 2 1 6 9
15 15 14 14 14 13 14 13 12 12 13 14 14 14 14 13 11 9 8 7 7 7 7 8 10 11 9 6 1 2 5 5 5 8 5 7 8 9 11 10 11 11 8 6 4 3 3 3 5 5 5 3 3 4 5 5 4 5 6 9 7 5 6 5 7 8 7 7 9 11 10 9 10 8 6 8 10 9 12 11 7 8 6 3 3 0 4 7
16 15 14 14 13 13 13 13 13 13 14 14 14 15 14 13 11 9 7 6 6 6 7 8 10 11 9 6 2 3 6 4 4 5 4 7 8 9 10 9 11 10 8 5 3 2 2 3 5 5 5 3 4 5 3 4 4 4 5 8 6 2 6 7 5 5 6 7 9 11 11 11 12 11 9 11 12 9 10 8 5 6 7 6 5 3 4 8
16 15 14 13 12 12 13 13 13 13 14 14 15 16 16 14 11 8 6 5 5 5 7 8 10 10 7 6 4 4 4 1 4 3 4 6 7 8 8 8 9 8 6 4 2 1 1 3 5 4 3 2 3 2 2 3 4 6 4 4 4 4 7 6 4 4 5 9 10 11 11 10 12 12 12 13 12 11 11 9 7 8 9 8 7 6 5 7
17 15 14 13 12 12 13 13 13 14 13 14 16 17 17 15 11 7 5 4 4 5 7 8 9 9 5 3 2 2 2 6 4 2 4 6 6 8 8 8 8 6 5 4 4 3 3 1 1 1 3 2 2 1 2 2 5 7 3 4 3 3 5 4 3 4 5 9 10 9 9 10 13 13 12 11 11 12 12 9 8 9 9 9 9 8 7 6
17 16 14 13 11 12 12 13 14 14 13 14 16 18 18 15 9 6 4 3 3 5 7 9 9 8 5 2 4 2 7 7 4 2 4 6 6 8 8 6 6 4 3 5 6 4 3 3 3 2 4 1 0 1 0 3 7 7 2 3 4 4 6 4 5 6 6 8 7 8 9 10 13 10 9 12 12 9 8 8 7 8 9 10 10 8 7 7
17 16 15 13 11 11 12 13 14 14 14 15 17 18 18 13 7 4 3 2 3 5 7 8 8 7 6 4 6 3 7 5 5 4 6 7 8 9 7 4 4 3 1 3 4 4 3 3 4 3 4 3 1 1 1 5 4 3 2 2 5 5 5 4 6 8 6 6 6 9 11 12 11 6 10 13 8 4 5 9 8 8 10 11 11 9 6 6
18 17 16 13 12 12 12 13 14 14 15 16 18 18 16 10 5 3 2 1 3 5 7 8 8 6 4 6 4 4 5 5 4 5 7 8 7 6 4 3 3 2 1 2 2 4 4 3 5 4 3 0 1 1 2 4 2 1 4 5 7 7 5 5 7 7 6 6 7 10 12 12 7 4 9 6 3 6 6 9 8 7 10 10 10 9 7 7
18 17 16 14 12 12 12 13 13 14 15 18 19 17 11 5 3 2 1 2 4 6 7 7 6 5 5 6 3 7 5 5 4 5 7 7 6 4 3 3 3 2 2 1 2 4 4 4 3 3 2 0 2 2 1 2 3 2 6 7 8 9 6 6 7 5 6 4 3 8 11 12 7 8 12 1 7 5 6 8 8 8 9 9 8 7 6 6
19 18 17 15 13 12 12 12 13 14 17 20 19 13 6 3 2 2 2 3 5 6 7 6 6 4 5 2 8 7 4 4 4 6 7 6 5 4 3 3 3 3 3 3 2 3 3 3 3 4 2 3 3 2 2 1 4 4 6 7 6 7 6 4 4 3 4 0 1 5 9 11 10 11 9 2 5 4 5 8 7 7 7 7 7 6 6 5
19 18 17 15 14 12 12 12 13 15 19 20 15 6 2 3 3 3 4 4 5 6 6 6 6 3 5 3 7 5 4 4 5 7 6 5 5 3 2 2 3 3 3 4 3 2 3 2 5 4 3 4 2 2 1 2 5 4 6 6 4 7 7 6 3 3 4 1 2 5 7 6 8 7 3 4 5 5 5 6 5 5 5 6 6 6 6 5
20 18 17 15 14 13 11 12 13 17 20 18 9 2 5 4 4 5 6 4 4 5 4 5 5 3 4 4 5 5 7 3 3 7 7 7 6 2 1 1 1 2 2 4 3 2 3 3 5 3 0 4 3 1 4 4 4 3 5 5 4 5 5 8 4 2 4 3 1 7 7 1 7 5 2 3 2 5 6 6 4 5 4 5 6 7 7 5
20 18 17 15 14 13 11 12 14 18 20 13 4 4 5 5 5 7 7 4 3 4 4 3 3 4 2 6 3 5 9 4 4 9 8 7 7 6 5 2 1 1 2 3 3 1 2 4 5 3 1 1 4 6 5 4 3 3 4 4 3 3 3 7 5 2 3 1 1 6 6 1 4 3 0 1 3 5 7 7 5 5 5 6 6 6 7 5
20 18 17 16 14 12 11 13 15 19 17 8 3 4 5 4 3 6 8 3 1 4 4 2 2 6 1 5 2 3 7 7 7 9 7 6 6 7 8 2 2 1 2 2 3 3 3 4 2 2 2 3 5 5 3 4 4 3 4 2 1 4 1 4 7 3 3 4 3 5 5 5 1 0 3 4 6 7 8 8 7 6 5 6 5 5 6 5
20 18 17 16 14 12 12 13 16 19 14 6 4 4 4 3 1 6 7 2 1 3 3 2 3 5 1 4 3 4 8 9 8 7 5 5 5 6 7 3 1 2 5 5 5 5 3 4 2 1 3 3 2 4 4 4 3 2 3 2 2 4 4 2 4 5 1 5 5 6 7 8 5 3 5 6 7 8 9 9 8 7 6 5 5 5 6 6
20 18 17 16 14 12 13 14 15 18 12 4 4 4 4 2 2 5 5 1 2 3 2 2 2 3 3 5 4 6 9 8 7 6 4 4 4 5 6 4 2 2 7 6 4 3 3 3 3 3 3 1 1 4 4 2 3 3 3 4 3 4 5 6 2 2 2 6 8 9 9 9 7 5 6 7 7 9 9 9 8 7 6 5 5 6 6 7
20 18 17 16 14 11 13 15 15 18 11 2 3 3 2 2 1 3 3 1 1 1 0 2 3 1 2 6 6 7 7 5 4 4 6 5 4 4 3 3 3 2 4 4 2 0 3 3 4 4 1 1 3 4 4 4 4 5 4 6 6 5 5 6 5 3 4 8 9 10 10 8 8 7 8 8 7 9 9 8 7 6 5 5 5 6 6 8
20 18 16 15 14 10 12 15 14 16 11 2 1 1 2 3 3 3 5 5 4 4 4 3 4 3 3 4 7 8 3 1 3 6 8 8 6 5 3 3 4 2 2 3 1 1 3 4 2 1 3 4 4 3 3 3 3 5 6 6 6 7 6 5 5 2 2 8 9 9 10 10 10 9 9 8 8 8 7 6 5 4 4 5 7 7 7 8
20 18 15 15 14 9 10 14 14 14 10 4 1 3 1 1 1 2 4 5 5 2 2 3 3 3 4 4 7 9 3 2 4 7 9 9 7 6 3 5 4 1 3 4 3 1 4 3 2 4 4 4 4 2 3 4 5 6 7 7 7 7 6 5 6 3 2 5 8 10 11 11 11 10 8 6 5 4 3 4 4 5 6 6 7 7 8 8
20 17 15 13 13 9 8 12 14 13 10 7 4 2 4 5 3 3 2 2 6 1 1 2 3 1 3 2 4 8 6 1 4 8 11 10 6 6 5 4 4 2 2 3 3 3 4 1 5 4 3 3 4 3 5 7 7 7 6 7 7 5 5 6 5 2 3 4 7 10 10 11 10 7 4 1 1 1 2 3 4 5 6 6 7 8 8 9
20 17 15 12 12 9 5 9 12 13 12 10 8 6 5 4 3 2 4 2 5 3 1 2 1 5 5 1 5 8 4 2 4 7 11 10 6 6 6 5 4 3 2 3 3 3 0 4 5 4 3 5 5 4 6 7 6 6 5 6 6 4 6 5 2 2 7 8 8 9 9 9 4 1 2 3 1 1 3 3 4 5 6 7 8 8 9 10
21 17 14 11 10 8 4 6 9 10 10 9 9 7 4 4 3 2 4 3 2 3 2 3 3 6 6 3 5 7 1 4 4 6 9 10 7 4 5 5 5 3 3 5 3 2 4 6 5 4 3 5 5 4 4 6 5 4 5 5 6 5 6 6 5 8 11 9 7 7 9 4 3 1 1 3 2 3 4 5 6 6 7 8 8 9 10 10
21 17 14 11 8 7 4 3 6 6 5 6 7 5 4 4 2 2 3 3 1 3 4 2 1 5 5 3 5 5 1 2 3 5 7 8 8 5 3 2 4 3 5 4 3 1 5 5 4 3 1 2 5 3 3 5 6 4 2 2 5 6 6 8 9 9 9 4 5 2 8 1 4 3 0 3 1 3 6 6 7 8 9 9 9 10 11 10
22 17 14 10 7 7 3 1 5 5 1 3 4 3 4 5 1 1 3 4 2 2 2 0 1 5 5 5 7 4 5 1 4 3 4 6 6 5 3 1 1 3 5 3 1 1 4 3 1 1 1 2 3 0 3 4 7 3 2 2 4 7 8 9 10 8 6 4 0 3 6 2 3 3 5 4 1 4 7 8 9 10 10 11 10 10 11 11
22 17 13 10 8 6 3 1 4 4 1 2 2 3 4 3 2 1 3 5 2 1 2 2 2 5 7 6 8 6 3 4 3 2 4 7 4 4 4 3 0 1 3 2 1 2 3 2 1 2 3 2 3 2 3 5 7 3 4 4 6 8 10 10 10 8 5 7 7 3 2 5 5 3 7 2 1 5 8 9 10 11 12 13 12 12 13 12
21 16 12 9 7 6 4 1 3 3 2 1 1 4 4 1 3 2 4 4 1 1 2 3 1 5 6 3 5 3 3 6 4 3 6 6 5 4 3 4 3 2 2 5 0 4 1 2 3 4 4 3 4 5 5 5 6 3 5 8 9 10 12 10 9 8 4 5 5 3 1 6 3 5 7 3 4 7 9 10 11 12 13 14 13 13 14 13
19 14 10 8 6 5 4 1 1 1 1 2 3 4 2 2 3 3 4 3 1 1 1 2 0 4 6 2 1 3 3 3 4 5 4 2 4 3 0 5 2 1 2 4 3 6 1 3 3 5 5 5 6 6 4 5 6 6 7 10 10 10 9 8 8 5 3 4 2 5 3 5 2 2 3 5 6 7 8 9 10 13 15 15 15 14 14 13
17 11 8 7 5 4 4 1 1 2 2 3 4 2 2 4 3 5 3 2 1 2 0 3 2 3 8 3 2 3 3 3 3 3 1 1 3 3 2 1 3 2 3 2 5 6 4 2 2 2 5 6 7 5 2 4 7 7 8 9 7 6 4 4 4 3 4 4 3 4 3 4 2 2 4 5 5 7 8 9 12 15 17 17 16 15 15 13
15 8 6 6 4 3 3 0 0 3 3 3 3 2 4 3 4 5 2 1 1 1 0 3 3 2 5 5 3 4 2 3 4 4 1 1 2 3 2 3 3 3 3 4 4 5 5 4 2 2 3 7 7 2 3 4 7 7 6 6 5 3 2 3 4 3 5 2 4 2 1 4 4 2 6 6 7 9 10 11 13 16 16 16 15 15 14 13
12 4 4 4 4 4 3 3 3 4 4 3 2 4 4 3 4 2 1 2 2 3 2 3 5 4 4 3 3 5 3 2 4 4 3 2 2 5 3 2 2 3 2 2 1 4 5 3 2 3 1 6 8 3 2 4 4 4 5 5 4 1 1 3 3 2 2 2 3 1 2 4 3 3 6 7 8 9 8 10 12 14 15 15 15 15 13 12
10 2 3 4 4 4 4 5 4 4 3 2 4 4 4 4 2 1 2 0 0 3 2 2 3 4 5 4 3 5 3 1 4 2 0 3 1 3 5 6 5 4 1 2 2 2 3 3 2 2 2 3 7 5 2 1 3 5 5 5 4 3 2 2 1 1 1 2 1 1 2 3 1 4 6 8 9 10 9 11 12 13 15 15 15 15 14 13
8 1 1 3 5 6 5 4 3 2 2 3 5 4 4 4 1 1 0 2 2 1 0 2 3 2 1 2 4 5 1 2 4 3 2 2 1 2 3 5 6 4 2 1 1 2 1 2 3 4 2 4 4 4 5 5 4 4 5 5 4 4 3 3 3 3 3 3 1 0 2 3 2 4 5 7 9 11 11 11 12 13 14 15 14 14 14 15
9 2 1 3 5 9 6 3 2 1 3 4 4 4 4 2 1 1 0 3 2 1 0 1 4 3 1 2 2 3 2 1 3 3 2 1 1 2 1 3 6 5 3 2 1 2 3 1 5 4 2 4 3 3 6 7 3 2 3 3 3 3 3 3 3 4 5 5 1 0 2 2 3 5 5 8 10 12 13 14 15 16 16 17 16 15 15 15
9 3 1 1 4 10 8 3 2 1 4 5 5 3 1 2 2 1 2 2 1 3 3 2 2 3 1 1 1 3 1 1 4 3 1 1 1 1 2 3 5 6 4 3 2 1 3 1 5 3 1 2 3 3 6 7 4 2 3 3 4 2 3 3 2 3 5 4 0 1 1 1 4 5 4 11 12 13 15 16 17 17 18 18 17 16 17 17
10 3 2 1 4 12 8 3 3 2 5 5 3 1 1 2 2 2 2 1 1 3 5 2 1 2 2 1 1 3 2 2 2 4 1 1 1 2 1 2 3 5 6 4 2 1 4 2 4 2 1 4 0 2 3 6 7 4 2 4 2 2 2 2 1 2 3 3 1 2 2 3 2 2 5 13 15 15 17 17 17 17 17 17 17 17 18 18
11 4 3 1 8 13 8 5 3 4 5 4 0 1 1 1 2 1 1 1 1 2 4 2 1 1 2 2 2 4 5 3 2 3 2 1 1 2 1 0 2 3 5 5 4 1 3 4 4 3 3 3 4 4 1 3 6 4 3 2 1 2 1 0 1 2 3 3 2 2 3 3 4 5 8 12 15 16 17 17 17 17 17 17 18 19 20 20
8 4 3 3 11 13 7 5 3 5 5 3 1 2 0 1 3 1 1 2 2 3 3 2 1 1 1 3 3 2 3 4 4 3 1 1 1 1 2 2 1 2 3 5 5 1 2 4 2 3 1 2 4 3 1 2 3 2 2 1 1 1 2 1 1 1 2 4 3 4 5 2 3 6 8 10 12 14 15 15 15 16 16 16 17 18 19 20
5 4 1 5 13 11 5 4 4 4 3 1 1 1 1 1 3 2 1 3 3 2 2 1 1 2 2 2 3 2 2 4 4 3 1 1 1 1 2 1 3 4 4 4 5 2 2 3 2 1 3 3 2 0 3 3 2 0 1 1 1 1 1 1 1 1 3 4 3 4 7 3 3 4 7 9 11 12 13 14 14 14 15 16 17 17 18 18
4 4 2 5 13 9 3 4 2 2 1 1 1 1 2 0 1 2 2 3 4 2 2 4 4 4 3 3 3 1 3 5 3 2 2 1 1 1 2 1 5 6 6 5 4 2 2 3 4 3 2 2 1 3 3 4 4 3 2 1 1 1 3 3 2 1 2 4 4 5 7 3 3 2 6 8 10 11 13 14 13 13 15 16 16 17 17 17
4 4 1 6 12 5 4 3 1 1 2 1 1 1 1 1 2 1 2 3 4 3 2 4 5 4 5 4 3 2 3 6 4 2 2 0 2 2 2 2 5 6 5 5 3 1 2 3 5 5 3 2 3 5 3 2 2 2 1 0 1 2 4 4 3 2 3 4 3 4 5 1 3 2 6 7 9 11 12 12 12 12 13 14 16 17 16 16
3 5 2 7 11 4 5 3 2 2 1 2 0 0 1 1 2 2 1 3 3 3 3 3 3 4 4 3 3 4 3 4 4 2 2 2 2 1 1 1 3 5 4 4 2 1 1 3 5 6 3 2 5 6 4 1 1 2 1 1 1 2 4 5 5 4 4 4 3 4 5 0 2 1 4 6 9 11 11 12 13 12 12 14 16 16 15 15
3 4 2 7 10 3 5 3 1 2 1 2 3 2 1 2 2 3 3 2 2 2 3 4 3 3 3 2 4 6 4 2 3 3 3 4 0 1 1 2 3 5 4 3 2 1 2 3 3 5 5 3 4 4 4 2 3 2 1 1 2 3 5 6 5 4 5 3 1 5 6 2 3 3 5 7 10 11 11 12 13 12 12 14 14 15 16 16
3 3 2 3 6 2 2 2 2 2 1 1 4 2 2 2 1 2 4 3 2 2 3 3 2 3 4 4 6 7 6 5 4 3 4 4 3 2 2 3 4 6 5 4 4 3 3 3 3 5 6 4 4 3 1 1 2 2 2 3 3 4 6 6 5 6 5 2 3 6 7 6 7 8 8 9 11 12 13 13 13 12 12 14 14 14 15 16
2 2 1 0 2 2 1 1 2 2 1 2 3 2 3 3 1 1 3 4 2 2 4 3 2 4 5 5 7 7 7 7 6 5 5 6 6 2 2 4 6 7 5 5 7 6 3 3 4 5 7 7 8 7 4 3 4 4 4 5 5 4 5 5 6 6 5 5 5 5 6 9 11 11 11 12 12 13 13 14 13 12 12 14 15 14 15 15
1 1 2 2 1 0 1 2 1 2 1 2 2 1 2 4 1 2 3 2 1 3 5 4 3 6 6 6 7 7 7 7 7 8 8 8 7 4 4 6 6 4 4 5 7 5 3 4 4 4 6 9 11 10 7 6 6 7 7 7 6 5 5 6 8 6 6 6 6 4 5 10 12 11 11 12 13 13 13 13 13 12 12 14 15 16 16 17
1 1 2 1 2 2 1 2 2 2 1 2 2 1 3 4 3 1 2 2 2 3 3 3 4 6 7 6 6 6 7 7 7 7 7 6 6 6 6 5 2 3 5 5 5 3 4 6 3 3 7 10 11 11 9 7 8 8 8 8 8 8 7 8 10 9 6 7 9 9 10 12 11 11 11 11 12 12 12 13 12 11 12 14 17 17 17 18
1 1 0 1 2 2 2 2 2 3 4 3 3 3 4 4 3 2 1 2 3 3 3 4 5 5 6 7 7 7 7 7 7 6 6 7 7 6 6 4 2 4 5 4 3 3 5 4 2 4 9 11 9 8 8 8 8 8 9 10 10 11 10 9 9 9 9 10 13 13 14 13 10 8 9 10 10 10 11 12 12 11 12 15 17 17 17 18
1 1 1 1 3 2 1 1 2 4 3 3 3 3 3 5 4 2 2 3 5 2 2 5 7 6 7 8 8 9 9 8 9 9 9 9 8 6 6 4 2 4 5 4 3 3 3 2 1 4 9 9 5 3 4 7 8 9 11 11 11 12 11 10 9 8 9 11 13 13 14 12 6 5 8 10 10 10 11 12 12 11 12 14 16 17 18 18
1 1 1 3 3 1 1 2 2 4 3 3 4 2 3 4 3 2 4 4 5 5 4 6 8 7 7 9 10 12 12 11 13 13 12 11 10 9 6 5 5 5 5 6 5 3 4 4 4 5 7 7 2 2 5 7 9 13 14 13 14 13 11 9 8 7 8 9 11 10 10 8 5 7 10 11 11 12 13 13 13 11 11 14 16 17 18 18
2 1 1 3 3 1 1 1 1 3 3 2 3 3 3 2 1 2 4 2 2 4 4 6 8 6 7 10 10 9 8 10 12 12 11 11 12 11 10 9 10 10 8 8 7 6 6 6 6 5 6 7 3 2 5 7 9 10 8 9 12 12 10 9 8 8 8 8 8 8 7 7 7 9 11 12 13 14 13 12 11 11 11 13 15 17 18 18
Wind_Direction
359 357 357 354 350 349 347 347 345 343 347 356 0 360 358 358 359 360 354 346 345 347 354 1 360 6 13 29 46 75 86 78 69 68 60 45 33 33 34 32 20 11 5 344 318 209 202 199 185 203 209 188 210 205 177 206 216 211 223 233 239 241 242 247 245 244 256 257 236 216 242 247 251 238 219 244 239 239 245 245 240 214 198 240 285 219 150 152
359 357 354 351 351 349 347 346 343 348 357 4 3 358 357 355 358 359 351 343 343 349 357 0 1 8 12 22 39 86 96 99 77 67 56 36 33 32 27 23 15 15 9 349 358 306 250 190 170 214 214 191 185 174 175 188 207 222 228 235 239 244 250 255 256 256 257 264 259 235 241 244 250 252 252 251 241 234 235 233 233 225 195 183 171 147 160 166
359 355 352 351 351 348 347 347 348 357 2 4 1 356 356 353 356 354 345 340 341 350 358 0 2 2 6 10 4 140 187 204 79 62 46 20 23 23 17 15 12 13 11 355 358 329 304 295 222 228 220 205 177 184 193 176 194 225 235 240 242 248 254 248 254 262 263 270 269 254 247 244 241 246 251 257 254 247 246 240 237 237 214 183 75 134 178 178
358 353 353 352 351 352 355 358 1 3 1 0 357 354 354 351 351 347 343 340 343 357 2 3 358 355 4 6 318 212 247 237 71 52 27 8 6 11 11 11 9 10 9 351 348 326 294 253 222 227 233 205 159 194 197 173 195 219 227 249 261 263 252 231 238 255 262 263 260 259 259 255 248 245 250 261 262 248 246 245 244 258 262 284 350 8 199 200
355 354 354 352 353 359 4 4 4 2 358 356 354 355 355 351 348 346 344 342 354 7 9 5 358 357 3 6 50 186 247 250 69 40 6 359 355 5 8 10 8 11 4 340 349 319 247 218 210 218 234 196 169 198 179 171 228 239 219 258 291 287 256 242 231 242 254 256 254 255 256 258 256 253 255 258 257 252 259 268 272 283 291 296 313 314 228 217
354 355 354 354 358 4 4 0 0 0 356 354 356 357 355 352 347 345 345 349 7 18 14 6 2 5 6 19 65 175 243 18 62 20 4 351 351 3 2 8 10 14 356 330 22 339 225 204 215 211 225 194 195 202 102 156 229 254 209 233 268 251 262 259 239 240 247 252 249 250 253 259 259 257 257 255 255 263 276 295 305 293 295 296 293 290 257 226
354 354 353 356 3 6 2 358 359 359 356 356 357 354 352 350 346 346 352 2 21 22 14 5 6 13 17 23 55 177 89 69 62 349 357 344 351 0 356 6 7 9 351 352 33 11 19 355 241 240 235 196 202 175 86 171 213 257 222 162 220 235 254 259 250 239 239 252 252 258 265 259 254 257 256 251 253 259 271 289 298 290 290 286 277 276 277 259
353 352 353 357 4 5 1 358 357 357 357 357 354 350 347 346 346 348 358 24 33 21 9 5 7 11 17 316 254 110 68 55 39 338 336 339 344 351 352 3 360 360 1 21 21 353 1 11 37 324 259 109 111 203 121 235 211 240 249 158 205 221 237 248 253 249 245 253 256 257 260 254 253 266 266 255 255 258 275 288 284 278 276 274 270 271 280 281
353 353 352 357 3 2 1 356 355 356 356 353 348 345 343 343 346 354 20 52 31 13 4 5 8 8 11 296 257 79 54 10 358 329 324 332 335 345 350 353 351 349 23 40 12 336 348 5 34 342 307 48 301 260 300 262 218 222 275 232 238 236 238 252 256 256 257 255 257 252 250 250 249 269 265 253 266 307 298 281 275 273 270 268 267 269 280 287
353 352 352 358 360 360 359 354 354 355 352 347 342 339 339 343 349 10 48 57 18 3 2 6 11 12 340 281 257 78 39 341 340 331 332 340 339 342 341 344 342 318 349 44 18 2 12 17 23 338 299 46 267 303 269 275 347 350 280 265 259 260 256 261 262 263 263 254 255 254 253 252 237 242 253 235 31 353 300 276 277 275 266 266 267 270 279 281
353 352 355 359 359 359 356 354 354 352 348 341 336 336 339 347 2 32 66 24 5 355 5 9 11 12 305 296 52 74 30 347 351 344 348 358 353 338 325 339 336 309 319 13 52 28 13 19 359 286 265 318 262 231 201 298 323 284 272 261 245 251 247 244 250 247 249 237 240 264 263 256 229 229 247 200 52 357 313 288 281 279 270 267 265 267 268 269
354 355 357 359 360 358 354 356 354 349 344 336 333 335 343 20 32 55 45 7 358 352 6 9 15 6 289 331 62 56 21 359 6 3 2 6 359 348 332 317 310 311 310 309 36 39 345 356 304 284 358 318 265 204 124 334 278 256 256 252 214 214 205 201 218 200 229 187 51 274 260 239 219 226 241 6 27 355 311 281 278 284 279 273 272 272 264 268
358 358 358 360 360 358 357 360 356 350 342 335 335 343 53 70 68 66 24 358 352 354 4 7 19 333 278 69 67 33 13 358 15 23 11 2 354 357 349 316 301 297 295 302 339 351 302 318 297 313 353 288 300 30 324 245 253 237 230 241 191 187 171 150 156 177 204 60 23 265 265 220 185 201 193 56 357 330 292 276 292 298 298 296 289 280 267 269
360 0 1 0 0 1 2 2 359 350 343 340 346 59 100 93 81 50 13 360 352 358 11 12 18 293 273 82 70 21 20 356 23 23 8 359 351 3 56 3 291 267 273 283 292 295 279 270 269 267 301 300 342 308 246 210 222 210 203 224 215 202 151 138 151 219 207 113 28 263 274 193 138 163 145 96 334 331 309 296 310 312 323 316 299 286 273 271
1 2 3 3 2 3 5 4 358 350 347 352 28 102 109 112 84 31 7 15 8 22 27 13 9 282 225 98 71 16 20 9 20 10 2 358 352 6 12 11 144 221 242 264 270 250 237 233 247 244 144 244 252 246 221 182 197 200 215 221 216 234 144 147 166 273 281 67 310 263 275 297 123 148 183 4 319 334 315 301 304 312 324 314 301 292 282 283
2 3 5 5 3 4 7 4 356 352 353 6 57 114 126 127 84 7 3 7 8 53 40 13 314 290 323 78 29 360 14 7 7 360 2 359 347 356 355 2 148 204 189 177 183 170 195 218 236 296 260 218 235 253 221 204 201 187 249 266 227 266 258 154 165 171 316 323 264 248 278 302 359 82 314 321 329 331 315 305 302 303 311 308 302 294 289 291
3 4 5 5 4 5 6 3 357 355 357 18 56 121 139 135 62 357 6 17 109 73 39 6 305 278 41 56 324 346 1 358 0 357 8 6 347 343 349 9 98 165 156 152 171 175 189 203 195 225 232 226 251 264 248 241 229 185 272 271 220 265 281 260 169 147 279 298 268 255 267 279 287 297 302 313 326 320 310 307 302 302 304 298 301 296 289 291
2 3 4 5 5 5 5 5 0 358 1 34 64 117 145 139 64 16 17 75 183 200 216 4 313 237 102 48 352 344 347 353 2 5 15 6 344 331 348 3 346 201 187 185 176 192 212 198 221 234 216 207 314 283 284 332 337 320 315 295 263 246 248 260 270 84 342 292 277 273 268 269 280 285 294 305 311 305 302 302 296 294 288 276 285 291 291 294
2 2 3 5 5 7 8 7 5 3 6 58 67 81 145 171 110 45 46 93 177 214 221 15 349 291 23 21 358 336 340 351 354 22 28 6 333 299 314 329 296 256 234 224 157 182 264 227 227 241 234 5 5 341 333 5 343 315 311 297 291 279 264 271 297 1 350 299 281 279 280 283 290 293 295 299 298 292 289 288 282 274 267 264 279 291 295 294
3 1 1 3 5 9 11 11 12 8 11 65 71 275 203 196 189 127 80 62 48 31 35 29 1 346 341 357 352 340 335 10 25 43 28 359 321 280 293 319 263 227 360 316 335 51 264 249 225 338 5 358 353 351 332 334 303 289 281 274 277 279 275 273 288 347 345 292 288 286 289 289 291 292 290 294 291 281 279 282 283 285 293 297 297 303 301 294
2 0 359 1 4 8 11 15 17 16 26 57 355 260 252 13 224 106 79 82 73 18 39 49 327 323 343 329 349 344 299 157 69 50 22 353 317 296 333 339 286 237 36 320 286 178 240 253 62 24 358 339 320 309 285 274 264 267 272 274 271 270 278 281 286 306 286 281 290 291 292 291 291 293 292 295 285 275 303 317 317 322 322 318 316 321 316 305
0 360 358 358 2 3 9 16 20 29 44 54 49 71 63 30 6 13 328 126 99 114 186 102 263 337 14 294 345 331 283 216 63 46 15 346 337 349 346 330 325 1 6 292 250 208 216 104 54 16 339 299 272 264 263 261 263 263 264 274 274 289 312 284 252 257 286 284 295 300 302 293 289 296 298 320 297 295 9 348 339 342 338 337 336 337 330 321
359 360 358 356 359 360 4 14 21 35 46 51 57 65 56 19 358 350 292 258 106 131 167 73 355 28 34 42 3 323 295 20 360 32 12 340 355 2 324 336 342 316 341 354 325 283 189 76 33 347 311 283 257 242 259 259 257 262 271 279 281 321 327 290 227 319 305 286 285 299 296 277 267 190 158 123 62 67 70 25 14 10 356 354 347 343 338 331
359 359 0 357 355 356 354 8 21 36 47 53 60 58 32 360 350 328 293 274 110 117 98 57 28 21 23 16 337 314 15 53 340 16 10 345 353 325 312 349 315 281 29 8 316 294 54 48 357 319 281 284 267 246 271 275 268 263 273 289 304 322 315 304 310 311 301 271 245 288 292 251 138 166 188 114 108 97 64 17 15 18 7 5 359 353 348 340
358 357 2 360 356 359 349 6 24 24 42 56 61 55 16 6 350 297 293 252 170 128 143 139 42 27 10 323 333 324 253 84 19 22 11 354 346 316 327 344 295 347 28 347 271 155 54 26 334 305 268 290 268 264 345 312 295 275 240 300 321 312 297 294 296 298 298 259 157 318 303 183 138 245 239 77 91 78 43 10 11 15 12 10 6 2 355 347
356 355 359 2 4 360 333 42 23 356 9 67 52 32 2 358 295 280 299 245 219 111 137 182 351 24 3 330 353 320 235 107 48 27 9 360 342 295 297 290 232 12 3 332 295 99 53 44 359 329 285 275 265 285 35 316 295 303 84 47 300 290 283 283 291 290 290 297 275 300 299 287 237 216 100 59 331 56 25 8 13 9 7 6 4 1 355 352
355 353 356 4 10 5 360 29 3 343 8 69 34 353 350 334 230 222 277 242 211 43 358 6 7 9 3 346 340 297 260 4 7 77 27 358 346 254 271 353 160 57 17 289 207 82 46 69 77 334 288 303 335 355 14 320 293 334 43 342 288 278 278 278 286 280 281 299 280 246 274 282 270 127 96 51 326 39 13 3 7 2 360 358 357 355 350 350
352 351 357 6 15 24 39 2 335 352 17 14 316 324 338 303 199 221 258 246 207 22 356 31 24 346 346 334 342 339 6 342 310 64 29 345 349 264 242 36 356 14 6 282 207 97 22 13 31 344 332 12 1 336 339 300 280 341 3 314 289 276 280 282 279 268 268 283 258 134 84 275 251 123 113 87 23 17 3 357 356 352 351 349 350 349 345 344
351 350 1 8 17 32 36 34 341 345 346 298 302 325 320 184 198 233 249 255 305 96 50 13 339 337 332 292 57 39 34 343 333 17 360 336 30 329 27 58 351 53 29 322 56 103 108 36 7 332 355 17 350 332 323 280 287 332 321 294 279 265 269 271 266 262 240 247 242 79 27 295 282 128 112 60 24 3 351 348 349 346 343 342 343 342 340 340
350 348 5 12 21 15 356 79 150 294 275 289 319 329 205 201 223 236 236 259 357 78 71 347 344 329 336 335 82 38 23 35 359 325 290 151 79 82 99 61 261 184 113 76 81 106 125 142 236 330 17 354 332 327 301 275 289 296 288 289 282 258 254 254 252 257 232 204 100 67 24 308 291 97 71 42 17 1 347 342 347 345 340 338 337 335 335 337
348 347 17 21 26 3 329 100 358 297 283 304 318 232 208 211 237 250 250 191 334 19 70 17 12 334 348 353 16 11 13 50 6 324 344 139 103 86 137 199 230 223 179 145 117 134 151 164 180 91 23 336 323 301 182 233 264 278 292 311 297 241 204 222 201 213 241 161 86 57 345 279 257 90 57 39 21 4 351 342 341 340 338 335 331 331 332 333
346 351 42 32 30 17 335 326 324 294 289 305 254 218 227 229 229 253 40 178 234 2 19 15 7 356 345 317 352 3 337 32 15 347 2 348 47 53 25 12 352 256 206 105 157 178 159 110 78 146 156 340 333 323 164 205 265 321 332 323 305 257 191 225 197 199 258 81 83 329 313 266 239 82 45 26 10 354 347 339 336 335 337 337 333 330 331 333
347 358 59 37 31 16 330 311 307 294 302 265 216 221 246 255 245 59 32 310 350 26 18 323 340 345 324 302 9 4 306 360 3 330 326 311 308 84 70 38 360 307 354 12 269 207 147 122 80 159 158 357 344 351 15 338 347 3 352 337 340 356 347 300 297 343 7 75 75 355 309 273 202 83 49 21 2 354 351 342 340 337 338 342 338 335 336 336
345 205 88 23 16 6 336 313 315 298 263 216 222 236 243 254 353 81 359 50 63 47 46 317 303 283 335 8 24 358 293 99 10 317 239 253 266 95 94 62 17 339 325 306 298 335 278 155 63 30 17 351 358 15 354 329 339 11 354 339 5 14 345 329 340 352 343 323 314 184 274 307 6 74 55 23 3 358 356 349 347 342 340 344 340 338 339 337
342 204 109 9 359 357 346 320 328 258 215 222 241 250 246 261 68 150 27 63 74 340 116 263 288 273 116 92 72 29 6 51 12 326 275 294 16 34 37 53 27 353 314 298 4 325 286 116 80 60 16 352 2 25 347 320 312 21 341 322 22 23 333 319 328 335 326 309 305 166 274 341 62 95 53 8 360 0 358 355 353 350 347 343 338 339 338 335
346 213 258 19 348 348 348 324 329 235 218 248 261 262 306 19 32 74 34 29 19 348 316 233 271 305 20 69 108 92 112 284 336 323 221 87 21 58 44 42 24 1 348 337 343 322 294 110 111 130 136 47 4 7 10 349 328 313 317 4 42 8 300 311 290 270 287 279 252 356 300 67 104 112 22 356 359 1 358 356 354 352 347 341 340 340 336 336
349 239 247 110 349 346 348 334 330 222 226 266 288 330 37 57 33 50 74 46 20 341 305 283 43 335 339 357 22 38 8 251 323 324 218 155 161 138 119 77 33 2 4 346 326 34 321 290 134 126 50 102 103 311 40 19 345 323 354 35 35 241 257 312 297 262 284 289 306 337 345 5 24 53 3 357 357 354 353 352 349 348 345 342 344 341 338 338
337 271 217 95 356 350 346 334 315 226 245 278 321 63 347 116 78 69 119 116 286 273 282 306 34 319 318 327 356 21 345 316 343 336 293 247 146 140 249 164 92 17 3 328 298 88 320 288 153 127 8 113 177 239 174 62 13 7 50 39 302 239 194 266 329 313 306 316 319 325 344 360 11 16 4 355 351 346 346 347 344 344 343 342 344 343 341 340
319 268 195 55 357 348 342 332 278 234 261 279 167 126 184 124 106 112 214 225 266 270 275 308 346 241 261 315 323 6 357 340 337 328 301 280 80 127 266 293 71 13 2 322 304 347 309 290 164 143 38 152 187 238 285 74 65 91 133 92 323 328 343 349 356 314 303 318 322 320 323 346 44 23 4 351 345 342 342 342 342 341 341 341 343 344 343 341
303 283 169 43 355 345 339 306 251 251 287 306 345 80 152 151 121 118 237 251 262 279 289 296 247 261 271 286 298 327 346 333 322 313 314 295 292 172 178 278 311 330 335 296 282 285 255 267 279 175 159 188 204 23 6 22 45 92 148 91 16 287 298 299 227 243 298 315 322 313 308 333 67 27 355 344 341 342 341 339 339 337 338 339 340 341 343 341
278 291 123 28 349 342 295 259 248 317 314 147 36 128 137 7 160 134 149 229 246 267 304 289 266 278 298 284 278 311 319 317 319 299 272 191 264 193 121 18 313 317 312 274 249 269 258 253 282 283 229 252 41 79 45 27 34 25 34 51 342 286 275 268 241 227 288 306 319 306 300 326 86 23 344 341 340 343 341 339 340 337 336 336 337 339 341 339
268 309 32 350 341 331 244 256 91 344 279 98 45 137 99 343 265 224 133 199 233 231 232 264 265 271 275 275 292 306 296 309 319 295 267 267 282 283 60 29 314 303 297 283 280 360 318 274 272 280 289 358 73 110 105 44 56 62 57 83 264 275 276 293 321 334 305 297 305 292 290 342 88 355 343 344 337 339 340 342 342 338 335 335 336 338 338 338
295 321 328 339 342 315 247 267 144 214 273 74 13 213 124 272 257 274 244 214 237 232 224 245 247 255 265 270 277 275 283 310 313 284 267 288 275 272 356 350 289 284 271 272 275 159 221 272 272 275 272 108 111 136 145 106 243 202 132 137 257 265 275 299 321 326 304 292 298 292 285 310 101 346 336 340 335 337 344 345 344 342 339 336 338 339 336 335
318 295 274 343 349 312 250 285 263 241 95 126 238 207 162 258 277 292 288 274 267 249 255 268 254 250 271 264 254 267 285 295 286 278 281 292 301 116 287 258 265 281 275 289 317 178 217 274 288 288 275 188 161 169 171 199 244 241 209 193 260 274 269 274 280 277 275 274 293 293 290 334 45 353 333 339 338 342 348 347 346 347 341 339 342 341 336 333
306 262 217 345 357 345 269 335 339 291 158 211 253 239 216 229 218 305 300 288 268 271 279 290 295 270 263 248 249 262 268 263 270 284 281 279 273 240 230 229 253 271 272 280 275 238 245 272 277 293 290 271 277 285 228 244 264 258 242 218 232 265 267 268 268 262 264 257 249 272 289 324 346 340 338 343 341 343 349 348 348 349 343 342 343 340 336 334
323 291 249 318 24 38 76 51 341 299 276 259 256 236 246 251 170 186 270 268 229 239 275 289 283 266 257 254 261 264 260 254 259 275 283 282 282 268 208 245 270 276 270 253 241 232 252 268 257 275 287 290 298 306 319 311 282 265 254 239 236 252 262 262 265 276 303 306 282 279 296 307 319 331 338 340 339 341 346 346 346 349 344 342 342 338 337 337
297 298 331 351 356 7 123 115 313 308 327 286 273 209 240 271 277 184 216 245 209 232 267 277 258 262 265 263 269 272 270 263 255 265 281 284 285 282 252 260 276 259 212 207 219 223 259 268 243 231 255 276 287 291 293 285 268 260 262 259 247 238 240 244 254 284 323 305 294 325 319 298 308 325 332 335 336 336 340 340 342 346 342 340 342 340 339 339
280 303 13 2 301 304 352 29 358 325 282 265 279 269 246 266 290 267 225 228 231 240 257 258 251 266 276 273 272 273 273 275 267 268 280 281 284 292 271 258 250 185 184 192 201 218 272 280 257 227 260 277 280 281 283 272 259 254 258 265 254 236 236 244 254 270 282 275 289 314 312 300 305 317 326 335 333 330 330 330 335 341 338 340 343 342 340 341
269 269 58 199 267 316 339 350 332 282 253 245 251 241 247 263 272 284 294 263 261 252 246 271 281 276 267 262 265 267 268 276 277 280 294 292 287 295 287 272 208 171 184 201 208 237 278 286 281 277 285 285 280 282 281 261 251 252 256 263 257 240 238 246 257 263 257 258 274 289 294 297 306 319 327 328 324 321 320 324 334 341 341 342 344 342 341 341
284 292 22 239 255 281 273 244 263 267 248 227 250 242 239 262 268 278 273 261 277 281 240 280 297 295 277 268 264 265 267 276 281 285 294 293 284 281 283 283 245 191 202 231 233 239 268 283 314 295 289 286 279 278 260 246 254 266 266 263 253 239 235 242 255 258 252 259 271 279 286 292 308 341 328 317 316 319 322 327 335 342 345 344 342 343 343 342
324 327 336 276 263 177 190 223 254 283 269 231 249 252 231 247 257 293 288 266 272 283 286 298 303 298 284 272 266 271 273 274 278 280 281 280 276 275 274 277 279 262 248 256 257 238 245 270 282 279 282 287 277 199 237 256 274 274 266 256 245 232 226 234 246 249 245 260 276 279 282 293 330 343 323 315 317 322 328 334 334 338 346 345 342 344 344 341
285 237 217 270 275 161 191 233 202 264 291 300 288 276 263 252 192 280 294 269 241 270 287 299 298 293 283 276 281 295 297 282 279 282 281 273 267 267 264 261 269 272 266 267 268 256 253 271 280 275 279 289 300 278 278 286 284 274 264 253 238 220 218 233 243 248 246 250 267 279 290 309 327 323 315 317 322 324 332 336 332 336 344 344 344 344 342 340
Height
832 831 830 829 827 826 825 824 823 821 820 819 819 818 817 816 815 814 813 812 811 810 810 808 807 806 806 805 804 804 803 802 802 802 803 805 805 804 803 803 802 801 800 799 799 798 796 795 794 795 793 791 791 789 790 790 788 791 795 799 795 790 786 779 779 779 778 777 772 774 777 779 779 772 768 770 772 771 771 770 767 766 769 770 772 772 772 773
832 831 830 828 827 826 825 824 822 821 820 820 819 818 817 816 814 814 813 812 811 810 809 808 807 806 806 805 805 804 803 802 802 802 804 806 805 804 804 803 802 801 800 799 798 797 794 793 793 793 790 790 790 790 791 790 790 792 792 794 792 784 778 775 778 777 779 780 775 776 779 779 779 775 772 777 777 771 774 773 768 768 769 769 770 771 771 772
832 831 829 828 827 826 825 823 822 821 820 819 819 818 816 815 814 813 812 811 811 810 809 808 807 806 805 805 804 804 803 801 801 803 805 806 805 805 804 803 802 801 800 800 799 798 795 794 794 792 789 789 789 790 791 791 791 789 788 792 786 778 776 778 781 780 780 780 779 779 778 778 778 774 775 780 777 774 776 772 770 771 768 768 769 769 771 771
832 830 829 828 827 826 824 823 822 821 820 819 818 817 816 815 814 813 812 811 810 810 809 808 807 806 805 804 804 804 803 800 802 805 806 806 805 805 804 803 802 801 800 800 799 798 797 795 793 791 789 789 790 789 790 790 790 787 789 790 781 778 782 782 783 782 781 781 782 781 779 780 776 772 776 779 781 779 774 767 769 771 768 768 769 769 770 771
832 830 829 827 826 825 824 823 822 821 820 819 818 817 816 814 813 812 811 811 810 810 808 807 807 805 804 803 803 803 803 803 805 805 805 806 805 805 804 803 802 801 800 800 798 797 796 794 792 791 789 789 790 789 789 789 789 789 788 787 781 784 788 783 781 783 783 783 783 783 782 781 775 773 776 778 782 778 768 763 766 769 768 768 768 769 770 771
831 830 828 827 826 825 824 823 822 821 820 818 817 816 815 814 813 812 811 810 810 809 808 808 806 805 804 803 802 802 803 806 806 805 806 806 805 805 804 803 802 801 800 798 797 795 793 792 791 791 789 790 791 790 791 790 790 790 787 787 787 787 788 783 782 785 785 785 785 783 780 778 777 778 775 776 778 773 765 764 767 768 767 767 767 768 768 769
831 830 828 827 826 825 823 822 821 820 819 818 817 816 814 813 812 811 811 810 810 809 808 807 806 805 804 802 802 801 801 804 806 805 805 805 805 804 803 803 802 801 800 798 796 794 792 792 791 792 791 791 792 791 792 791 791 791 787 788 789 788 788 785 784 785 785 786 783 781 780 780 782 780 775 774 774 770 767 766 768 768 766 767 767 767 767 767
831 829 828 826 825 824 823 822 821 819 818 817 816 815 814 813 812 811 810 810 809 809 808 807 806 805 804 803 801 799 802 804 805 805 805 804 804 804 803 802 802 801 800 798 797 795 793 794 793 793 792 792 793 792 793 792 791 790 788 789 789 789 787 785 785 785 785 785 782 782 784 783 780 778 776 776 772 769 769 769 769 769 767 767 766 766 767 767
830 829 827 826 825 824 823 822 820 819 818 817 815 814 813 812 811 811 810 810 809 809 808 807 806 804 804 803 798 799 806 806 805 805 804 804 803 803 803 802 802 801 799 799 798 796 794 795 795 795 793 794 794 793 794 794 791 788 789 789 789 788 785 785 786 784 784 783 782 784 785 782 776 778 780 775 772 770 770 770 769 769 769 767 766 765 766 767
830 828 827 825 824 823 822 821 820 818 817 816 814 813 812 811 811 810 810 810 809 809 808 806 806 804 804 801 797 803 808 805 805 805 804 804 803 802 802 802 802 800 799 798 798 796 795 796 796 795 794 794 794 794 794 794 792 790 790 790 789 787 785 786 786 784 784 782 783 784 784 778 774 781 782 773 773 773 772 772 769 769 769 767 766 765 765 766
829 828 826 825 824 823 822 821 819 818 817 815 813 812 811 810 810 810 810 809 809 808 807 807 806 804 803 799 798 805 807 805 805 805 803 803 802 802 802 802 802 800 799 797 797 797 797 796 796 795 794 794 794 794 793 793 792 791 792 791 789 787 785 786 785 785 783 782 783 783 782 778 775 781 778 772 774 776 774 773 770 769 768 766 766 766 765 765
829 827 826 824 823 822 821 820 819 817 816 814 812 811 810 810 810 810 809 809 808 808 807 806 805 805 803 800 802 806 806 805 805 804 803 802 802 802 801 802 801 800 799 797 797 798 798 797 796 795 794 793 793 794 794 793 792 791 792 791 787 785 787 786 784 784 783 783 782 783 785 780 777 778 772 771 775 775 775 773 771 770 768 767 766 765 765 764
829 827 825 824 823 821 820 819 818 817 815 812 811 810 810 810 810 810 809 809 808 807 807 806 805 804 803 803 805 806 805 805 804 803 803 802 801 801 801 801 801 800 800 798 797 798 798 797 796 794 793 793 792 793 793 791 792 792 789 787 786 787 788 785 784 783 782 784 781 784 788 776 772 774 771 774 777 775 776 773 772 771 770 769 767 766 764 764
829 827 825 823 822 821 820 819 817 816 814 811 810 810 810 810 810 810 809 808 808 807 807 806 805 804 803 804 805 805 804 804 803 803 802 802 800 799 800 800 800 800 799 799 798 798 798 797 796 793 793 793 791 791 791 790 790 789 788 785 783 787 788 783 783 783 783 783 779 785 788 773 770 774 771 775 776 776 777 774 774 773 772 771 769 767 765 764
828 827 825 823 822 821 819 818 817 815 812 811 810 810 810 810 810 810 809 808 808 807 807 806 805 803 801 803 804 804 803 802 802 803 802 802 800 798 798 799 799 799 799 798 797 798 797 796 794 793 792 791 791 791 790 790 787 786 791 791 784 783 785 783 783 784 784 783 779 785 787 773 770 773 770 772 773 775 777 775 774 773 773 773 770 768 766 764
828 827 825 823 821 820 819 818 816 814 812 811 810 810 810 810 810 809 809 808 808 808 807 806 805 803 802 804 803 802 802 802 802 803 802 802 801 799 798 797 797 797 797 797 797 797 796 794 794 793 792 790 789 788 788 790 789 786 790 793 790 787 785 784 783 782 783 784 781 784 786 778 772 772 771 771 772 775 776 774 773 773 773 772 770 768 767 765
828 827 825 823 821 820 819 818 816 814 812 811 810 810 810 810 810 809 808 808 808 807 807 806 805 803 803 804 803 803 803 803 803 803 802 801 801 800 798 796 795 795 795 795 795 794 793 793 794 793 789 788 787 786 791 797 794 789 788 791 792 790 789 787 783 781 782 785 783 781 784 780 774 772 772 771 773 775 776 775 773 772 772 771 769 768 766 766
828 827 825 823 821 820 819 817 816 814 812 811 811 811 811 811 810 809 808 808 807 807 807 806 804 807 808 804 805 806 804 803 803 802 802 801 801 800 798 796 794 793 793 793 792 791 791 790 791 791 787 787 787 788 795 800 797 796 795 793 792 790 790 788 783 781 783 785 785 782 781 778 773 772 773 771 772 775 774 774 772 771 771 770 769 768 766 765
828 827 825 823 822 820 819 817 816 814 812 811 811 811 811 811 810 809 808 807 807 808 809 808 806 810 811 806 806 806 804 804 802 801 801 800 800 799 797 796 793 792 792 792 791 791 791 789 790 791 791 793 794 794 796 798 798 798 797 796 795 792 788 785 783 781 784 788 785 781 780 777 775 774 773 771 771 772 772 771 770 769 768 768 768 767 767 766
828 826 825 823 822 820 819 817 816 814 812 812 812 812 811 809 808 809 808 808 809 811 811 811 809 809 808 806 806 805 804 802 801 801 801 800 799 797 795 793 792 790 793 795 794 791 791 793 793 795 797 798 798 797 797 797 797 797 796 794 793 793 789 783 782 781 784 791 785 779 780 778 776 773 770 770 769 770 770 770 769 768 767 768 768 768 768 767
828 827 825 823 822 820 819 818 816 815 813 813 812 812 811 810 810 812 811 811 813 813 812 812 811 810 808 808 807 806 804 801 799 799 800 799 797 796 794 793 793 793 795 796 794 792 792 794 798 800 800 800 798 798 798 798 797 797 795 793 791 789 786 781 782 782 783 790 787 778 780 778 773 770 768 768 769 769 769 770 771 771 771 770 769 770 769 767
828 826 824 823 822 821 820 819 817 816 814 814 813 813 814 815 815 815 814 812 813 813 812 812 811 809 808 808 807 806 804 802 800 799 800 798 795 797 796 794 796 797 795 794 793 793 794 797 801 800 799 799 798 798 798 797 796 795 792 792 791 786 785 782 781 783 783 789 787 780 782 779 770 768 768 768 769 769 770 772 773 773 773 773 772 772 770 768
828 826 825 823 821 821 820 819 818 817 816 815 815 815 816 818 817 817 816 811 811 812 810 810 810 808 807 807 807 805 803 804 803 801 801 799 796 799 798 796 799 798 795 795 796 795 795 800 802 799 799 799 798 797 797 796 794 793 791 793 791 787 791 790 783 784 785 785 785 783 783 775 767 768 768 768 769 768 770 772 772 773 773 773 773 772 772 771
828 826 824 823 822 821 819 819 819 818 818 817 817 818 818 819 817 818 816 810 810 810 809 810 809 808 809 808 807 805 804 805 805 802 802 801 799 798 798 800 800 797 797 799 799 797 798 801 800 799 799 798 798 796 796 796 793 791 792 794 794 792 795 795 788 787 783 778 780 785 783 771 769 773 768 766 768 768 771 771 771 772 772 772 773 773 772 771
827 825 824 823 822 821 820 820 819 819 819 818 819 819 819 818 818 819 816 812 811 809 808 810 808 808 809 808 807 805 804 804 804 803 803 802 801 799 799 799 799 799 800 800 798 797 801 802 799 800 799 797 798 796 797 799 794 791 792 794 796 796 796 794 791 790 789 783 779 786 791 780 772 773 771 770 771 771 773 773 773 773 772 772 773 773 773 771
827 825 824 823 821 821 820 819 819 820 818 818 820 819 819 819 818 819 817 814 813 809 809 809 809 810 809 807 806 804 807 806 802 803 803 803 802 801 800 798 798 801 802 800 797 799 802 802 800 801 799 796 795 795 798 800 796 794 794 794 796 796 796 795 792 793 795 789 778 781 794 789 773 768 772 775 775 774 776 775 774 774 773 774 774 775 774 772
827 825 823 822 821 820 819 819 820 819 818 819 820 819 819 818 818 819 819 820 817 812 811 809 810 812 809 808 805 805 811 808 802 802 802 803 801 799 801 799 798 800 801 801 802 803 804 803 802 800 797 794 795 798 798 799 799 796 794 794 795 795 795 793 792 792 790 786 778 776 789 792 779 771 774 776 776 778 779 778 777 776 775 775 775 775 774 773
826 824 823 822 821 820 820 820 820 819 819 820 819 819 819 817 818 817 821 829 822 813 814 812 810 811 808 808 806 806 810 807 805 805 800 802 801 798 800 802 801 801 799 801 805 807 805 805 805 801 797 796 799 800 798 800 800 793 792 795 794 794 792 790 791 788 784 787 785 779 786 791 780 770 771 775 779 784 784 782 780 778 777 776 775 776 774 773
826 824 823 822 821 821 820 820 820 819 820 819 818 819 817 817 818 814 820 830 820 813 818 813 811 813 808 807 808 807 808 807 808 805 799 801 801 798 800 803 802 802 800 796 800 806 805 805 805 802 801 802 802 799 797 801 799 792 792 793 788 787 787 789 789 783 784 791 790 786 790 793 782 769 770 779 787 790 788 783 781 779 777 776 775 775 774 772
825 824 823 822 821 821 820 820 820 819 819 819 818 818 817 818 817 817 826 829 819 815 817 812 814 817 812 810 810 809 809 809 807 803 800 800 799 798 801 803 801 800 801 798 799 805 804 803 804 803 804 803 800 797 797 800 798 793 791 787 783 781 783 787 785 782 788 793 792 791 792 795 790 777 777 787 790 789 788 784 781 780 778 777 776 775 773 772
825 823 823 822 821 821 820 819 819 819 818 818 818 817 817 816 813 819 828 824 818 817 815 815 818 817 817 818 815 811 810 810 808 805 803 800 799 800 800 802 802 798 797 798 802 803 801 802 802 802 803 801 797 796 797 797 794 790 786 784 785 784 786 789 786 787 792 792 793 792 791 796 795 783 782 788 787 785 788 787 786 786 785 782 780 777 775 773
824 823 822 822 822 821 820 819 818 819 817 817 818 816 815 816 815 818 820 818 821 822 819 821 821 818 820 820 818 816 813 813 810 809 809 805 803 806 806 806 807 804 801 802 804 801 798 800 800 801 802 800 798 796 796 794 789 787 786 786 788 787 792 796 790 788 791 791 790 788 791 795 789 783 785 787 786 785 787 788 789 789 788 786 783 779 775 773
824 823 822 822 821 820 820 819 818 818 816 817 817 812 813 819 820 819 816 816 823 824 822 825 822 821 821 818 819 819 816 816 813 810 811 808 805 807 809 808 807 807 807 806 804 800 801 803 799 800 802 799 799 800 802 798 791 793 793 792 793 794 805 810 799 793 796 794 785 782 791 792 783 783 786 786 785 783 784 786 787 786 785 785 784 780 777 775
824 822 822 821 821 820 819 818 818 817 817 817 815 812 817 823 821 820 819 818 821 821 823 825 822 821 821 820 822 820 817 817 813 810 810 807 806 806 806 807 807 806 805 806 806 804 809 810 802 802 804 799 799 802 804 801 796 797 793 792 797 800 808 813 806 803 803 796 784 784 793 791 786 789 786 784 785 782 784 784 784 784 781 780 781 779 780 778
823 822 822 821 820 819 818 818 817 816 816 815 812 811 818 821 818 819 819 818 820 820 821 823 821 819 819 820 822 821 821 819 813 811 810 807 809 810 808 809 810 807 805 809 810 805 806 807 802 802 803 801 801 800 798 798 799 796 790 792 801 804 806 809 809 809 809 805 793 787 789 782 780 786 782 782 784 783 784 783 782 784 781 778 778 777 779 778
822 821 821 820 820 818 817 817 816 816 816 813 811 812 816 818 817 818 820 820 821 822 820 821 820 819 818 818 818 819 822 821 814 812 811 810 813 813 812 812 811 809 807 809 810 807 806 805 800 800 801 801 802 800 797 799 800 796 793 799 804 804 805 808 811 810 811 811 797 786 785 777 776 786 784 782 785 784 784 784 783 785 784 782 779 778 779 778
821 821 820 820 819 817 816 816 815 816 814 809 813 817 816 818 819 818 820 822 823 822 822 822 823 823 823 821 819 818 819 818 815 813 812 813 814 814 813 813 812 811 810 809 810 809 810 807 798 798 802 801 801 801 799 799 799 798 800 804 806 806 804 805 811 811 806 805 794 784 787 783 783 791 788 784 788 788 786 786 786 786 785 783 781 781 780 779
821 820 819 818 818 816 815 815 814 815 811 809 817 823 819 817 819 819 821 822 823 823 823 824 824 825 825 824 821 819 819 817 815 815 814 813 814 814 812 811 812 812 810 810 810 808 812 810 801 798 801 801 799 801 803 801 799 800 802 803 807 811 809 804 809 812 808 806 798 788 786 787 790 794 793 793 794 793 791 790 789 788 786 784 782 781 780 779
821 818 816 817 817 815 814 814 813 811 809 810 818 821 819 818 819 820 820 821 822 823 822 822 824 825 825 824 821 818 820 820 817 817 817 816 816 815 812 811 811 811 810 810 809 807 811 813 806 798 798 800 799 801 806 806 802 801 802 803 805 808 808 806 807 807 806 804 802 797 790 788 793 795 797 799 797 796 796 793 791 790 787 784 783 782 780 779
821 817 815 816 816 814 814 813 811 809 810 814 816 818 819 819 819 820 821 821 821 822 821 821 823 824 823 823 821 819 820 819 817 818 819 818 817 814 812 813 813 811 810 810 810 808 810 814 810 799 796 801 802 802 804 806 805 805 807 809 809 807 807 809 806 801 801 802 804 807 800 790 792 796 797 798 797 796 796 794 792 790 786 785 784 783 783 781
822 817 814 815 815 814 813 812 812 812 813 816 818 818 820 820 818 820 822 823 822 820 821 821 821 821 821 821 819 819 820 816 814 817 818 816 817 816 813 814 815 814 811 809 806 807 810 813 811 804 799 801 803 801 802 804 805 806 808 811 813 811 809 811 808 799 797 799 802 808 805 792 791 795 794 795 795 794 793 793 792 790 787 786 784 782 783 783
822 818 815 815 815 813 812 811 815 816 814 816 818 819 821 821 819 819 820 822 822 820 821 822 821 821 821 819 818 818 821 817 812 815 817 815 816 816 813 814 815 814 814 810 806 808 812 812 812 807 801 800 801 802 804 805 804 805 808 809 812 813 811 810 809 803 799 798 797 803 804 795 792 794 792 793 793 791 791 791 791 790 788 785 782 781 782 782
823 819 815 815 814 812 812 813 816 816 814 816 819 819 821 821 820 819 819 820 820 820 821 821 820 821 819 818 820 819 820 819 815 814 815 815 814 812 811 814 815 814 813 810 808 812 815 814 812 805 797 798 802 803 804 805 805 806 807 808 809 812 811 808 807 806 804 799 795 799 799 793 793 793 790 791 790 788 788 788 788 788 786 783 780 779 780 781
825 822 817 815 814 811 812 814 815 815 816 819 820 820 821 821 820 819 819 819 819 820 821 819 818 820 819 820 821 818 818 822 820 814 813 814 812 810 811 814 815 814 811 808 808 813 816 814 813 808 802 805 809 810 810 811 809 805 805 807 809 810 812 811 808 809 808 802 802 804 795 785 786 787 786 787 787 786 787 785 785 786 785 781 778 778 779 779
826 822 818 815 814 812 814 815 814 815 817 820 821 821 821 821 820 821 820 819 819 820 821 819 818 819 819 820 821 817 816 820 820 815 813 814 810 808 810 813 813 812 810 809 810 811 813 814 814 812 810 809 809 811 812 811 809 805 804 808 809 809 811 812 810 808 805 801 804 805 793 782 782 783 783 785 785 784 785 783 783 785 783 780 779 779 779 777
828 825 820 815 813 813 816 817 817 817 818 820 822 821 821 820 819 821 821 819 819 821 821 820 819 819 819 820 821 818 814 815 817 816 814 812 808 805 808 810 810 809 809 811 811 809 813 814 812 814 815 811 808 806 805 806 810 810 807 806 807 808 809 811 810 804 800 800 798 795 794 792 788 784 783 785 785 785 784 784 783 784 783 780 779 779 777 775
830 828 825 823 820 816 816 817 818 818 819 821 821 821 821 820 819 820 821 819 819 821 821 819 820 820 819 820 822 820 815 813 815 816 815 812 807 805 806 806 807 808 810 812 810 811 816 814 811 817 819 813 807 804 801 804 809 810 808 805 804 806 808 811 810 802 801 803 795 787 793 799 793 786 785 787 786 786 786 785 783 783 783 780 777 777 776 773
829 828 828 830 828 821 819 821 821 821 822 822 821 821 822 821 820 821 820 818 818 820 821 821 820 819 819 819 822 822 818 817 816 814 813 811 808 807 804 802 805 808 810 810 810 812 815 811 808 815 817 810 805 803 801 803 805 805 805 803 802 804 806 808 806 801 803 806 797 788 793 797 792 787 787 787 788 787 787 784 782 783 783 779 776 776 775 772
829 829 828 831 829 824 824 826 825 824 823 823 822 821 822 821 820 820 819 820 821 818 820 824 820 817 818 819 821 822 820 821 820 815 813 812 811 811 808 804 805 807 809 811 811 812 812 807 807 812 812 806 803 802 801 802 802 802 802 801 800 800 801 803 802 799 801 803 797 792 794 793 788 787 787 787 787 786 784 781 780 782 782 779 777 775 774 771
830 830 829 830 828 825 826 827 827 824 822 823 823 820 821 821 820 820 819 822 824 820 820 824 819 816 818 820 821 821 818 819 820 817 816 816 814 812 809 806 803 803 806 810 810 812 813 809 807 811 810 802 800 805 805 803 802 802 800 797 796 797 799 801 800 798 800 800 796 794 797 792 785 784 786 785 784 783 782 780 780 781 782 781 777 774 773 771
833 832 832 831 827 825 827 827 826 825 821 821 821 819 820 821 820 821 819 818 821 820 818 820 819 818 819 820 820 820 816 816 817 815 813 815 813 810 807 805 803 803 805 806 807 811 814 809 804 810 811 800 797 805 807 803 802 801 797 794 793 794 797 798 797 796 797 799 798 798 797 790 783 783 785 783 782 782 781 780 780 780 781 781 778 773 772 771
834 833 832 832 828 826 827 826 827 828 824 820 819 819 820 820 820 823 823 818 817 818 818 819 820 821 821 819 817 817 815 815 815 812 810 810 808 807 807 805 805 806 806 805 805 805 808 806 802 807 810 799 794 802 805 804 803 796 789 787 786 788 792 793 793 792 792 795 798 796 791 785 784 786 785 783 782 781 780 780 780 780 780 780 777 773 772 771